Flag for Norway Weather past 2 weeks in Longyearbyen, Svalbard, Norway

27 °F

Passing clouds.

Feels Like: 10 °F
Forecast: 24 / 29 °F
Wind: 29 mph from East

Location: Svalbard Lufthavn

Current Time: Nov 28, 2015 at 2:02:32 AM

Latest Report: Nov 27, 2015 at 11:50 PM

Visibility: N/A

Pressure: 29.15 "Hg

Humidity: 64%

Dew point: 16 °F

Location of LongyearbyenLocation

Historic Weather in Longyearbyen — Graph


Longyearbyen temperature yesterday

Maximum temperature yesterday: 30 °F (at 10:27 AM)
Minimum temperature yesterday: 25 °F (at 7:50 PM)
Average temperature yesterday: 28 °F

Past Weeks' High & Low Weather Summary

High36 °F (Nov 15, 10:04 AM)93% (Nov 15, 2:20 PM)30.15 "Hg (Nov 15, 2:20 PM)
Low10 °F (Nov 24, 3:50 AM)53% (Nov 21, 1:50 AM)29.00 "Hg (Nov 27, 1:50 AM)
Average23 °F71%29.42 "Hg
* Reported Nov 12 11:50 PM — Nov 27 11:50 PM, Longyearbyen, Weather by CustomWeather, © 2015

Note: Actual official high and low records may vary slightly from our data, if they occured in-between our weather recording intervals... More about our weather records


Longyearbyen weather history for previous 24 hours

Time TempWeatherWind HumidityBarometerVisibility
11:50 PM
Fri, Nov 27
27 °FPassing clouds.29 mph64%29.15 "HgN/A
10:50 PM27 °FLight snow. Partly cloudy.29 mph64%29.15 "HgN/A
9:50 PM27 °FPartly cloudy.32 mph59%29.15 "HgN/A
8:50 PM27 °FLight snow. Partly cloudy.32 mph59%29.15 "HgN/A
7:50 PM25 °FLight snow. Passing clouds.31 mph74%29.15 "HgN/A
6:50 PM27 °FLight snow. Partly sunny.28 mph74%29.12 "HgN/A
4:50 PM27 °FLight snow. Partly sunny.28 mph86%29.09 "HgN/A
4:20 PM27 °FLight snow. Partly sunny.26 mph86%29.09 "HgN/A
3:50 PM28 °FLight snow. Broken clouds.26 mph80%29.06 "HgN/A
3:20 PM28 °FLight snow. Scattered clouds.29 mph86%29.06 "HgN/A
2:50 PM30 °FScattered clouds.30 mph69%29.06 "HgN/A
2:20 PM30 °FBroken clouds.26 mph64%29.03 "HgN/A
1:50 PM30 °FPartly sunny.31 mph69%29.03 "HgN/A
1:20 PM30 °FLight snow. Broken clouds.26 mph69%29.03 "HgN/A
12:50 PM28 °FLight snow. Partly sunny.30 mph80%29.03 "Hg4 mi
12:20 PM30 °FBroken clouds.31 mph69%29.03 "HgN/A
11:50 AM30 °FScattered clouds.30 mph75%29.03 "HgN/A
11:20 AM30 °FLight snow. Broken clouds.30 mph75%29.00 "HgN/A
10:50 AM30 °FLight snow. Broken clouds.31 mph69%29.00 "HgN/A
10:27 AM30 °FLight snow. Broken clouds.31 mph69%29.00 "HgN/A
9:50 AM28 °FLight snow. Partly sunny.24 mph74%29.00 "HgN/A
9:20 AM27 °FLight snow. Partly sunny.28 mph69%29.03 "HgN/A
8:50 AM27 °FLight snow. Broken clouds.32 mph64%29.03 "HgN/A
8:20 AM27 °FLight snow. Partly sunny.35 mph69%29.03 "HgN/A
7:50 AM27 °FLight snow. Broken clouds.31 mph69%29.00 "HgN/A
6:50 AM28 °FLight snow. Partly sunny.25 mph69%29.00 "Hg6 mi
5:50 AM28 °FLight snow. Passing clouds.23 mph74%29.00 "Hg5 mi
4:50 AM27 °FLight snow. Passing clouds.20 mph80%29.00 "Hg5 mi
3:50 AM27 °FLight snow. Passing clouds.23 mph64%29.00 "HgN/A
2:50 AM27 °FLight snow. Passing clouds.24 mph74%29.00 "Hg4 mi
Weather by CustomWeather, © 2015

See weather overviewHow to use our weather pages